When you browse on this site, cookies collect data to enhance your experience and personalize the content and advertising you see.
Visit our Privacy Policy to learn more. By continuing to use the site, you agree to this use of cookies and data.
  • In Sweden
  • List of Countries
  • For 7 days
  • Water Temperature
  • Satellite Maps
  • Weather Map
  • Weather Widgets
  • user-avatar
    Login

    Hourly Weather Nagano

    Today, 16 June, Sunday

    Time Temperature Precipitation Wind Pressure Humidity
    00:00 +15°C° 0.1 mm 1 mps 675 mmHg 95%
    01:00 +15°C° 2.8 mm 1 mps 675 mmHg 95%
    02:00 +15°C° 2.8 mm 1 mps 675 mmHg 96%
    03:00 +14°C° 0 mm 0 mps 675 mmHg 96%
    04:00 +15°C° 1.3 mm 1 mps 676 mmHg 95%
    05:00 +15°C° 1.3 mm 1 mps 676 mmHg 95%
    06:00 +15°C° 1.3 mm 2 mps 677 mmHg 94%
    07:00 +17°C° 0.7 mm 3 mps 677 mmHg 87%
    08:00 +18°C° 0.7 mm 4 mps 678 mmHg 79%
    09:00 +19°C° 0 mm 4 mps 679 mmHg 73%
    10:00 +19°C° 0.4 mm 5 mps 680 mmHg 70%
    11:00 +19°C° 0.4 mm 5 mps 680 mmHg 67%
    12:00 +19°C° 0.4 mm 6 mps 681 mmHg 64%
    13:00 +17°C° 0.3 mm 5 mps 681 mmHg 67%
    14:00 +16°C° 0.3 mm 5 mps 681 mmHg 70%
    15:00 +17°C° 0 mm 3 mps 681 mmHg 70%
    16:00 +16°C° 0.4 mm 3 mps 682 mmHg 74%
    17:00 +16°C° 0.4 mm 3 mps 683 mmHg 78%
    18:00 +14°C° 0.4 mm 3 mps 684 mmHg 82%
    19:00 +13°C° 0.3 mm 3 mps 684 mmHg 83%
    20:00 +14°C° 0.3 mm 2 mps 685 mmHg 85%
    21:00 +14°C° 0.3 mm 2 mps 686 mmHg 87%
    22:00 +13°C° 0.2 mm 2 mps 686 mmHg 88%
    23:00 +13°C° 0.2 mm 1 mps 686 mmHg 90%

    Tomorrow, 17 June, Monday

    Time Temperature Precipitation Wind Pressure Humidity
    00:00 +12°C° 0.2 mm 1 mps 687 mmHg 92%
    01:00 +12°C° 0 mm 1 mps 687 mmHg 93%
    02:00 +11°C° 0 mm 1 mps 687 mmHg 93%
    03:00 +11°C° 0 mm 1 mps 687 mmHg 94%
    04:00 +12°C° 0 mm 1 mps 688 mmHg 92%
    05:00 +12°C° 0 mm 1 mps 689 mmHg 91%
    06:00 +13°C° 0 mm 1 mps 690 mmHg 90%
    07:00 +14°C° 0 mm 1 mps 690 mmHg 81%
    08:00 +16°C° 0 mm 1 mps 691 mmHg 72%
    09:00 +18°C° 0 mm 2 mps 691 mmHg 64%
    10:00 +19°C° 0 mm 2 mps 692 mmHg 58%
    11:00 +20°C° 0 mm 2 mps 692 mmHg 53%
    12:00 +23°C° 0 mm 2 mps 693 mmHg 47%
    13:00 +21°C° 0 mm 2 mps 693 mmHg 50%
    14:00 +21°C° 0 mm 3 mps 693 mmHg 53%
    15:00 +21°C° 0 mm 3 mps 693 mmHg 55%
    16:00 +20°C° 0 mm 2 mps 693 mmHg 61%
    17:00 +19°C° 0 mm 2 mps 693 mmHg 67%
    18:00 +18°C° 0 mm 2 mps 693 mmHg 72%
    19:00 +16°C° 0 mm 1 mps 693 mmHg 78%
    20:00 +14°C° 0 mm 1 mps 693 mmHg 83%
    21:00 +13°C° 0 mm 1 mps 693 mmHg 88%
    22:00 +11°C° 0 mm 0 mps 693 mmHg 89%
    23:00 +11°C° 0 mm 0 mps 693 mmHg 89%

    Day after tomorrow, 18 June, Tuesday

    Time Temperature Precipitation Wind Pressure Humidity
    00:00 +10°C° 0 mm 0 mps 693 mmHg 89%
    01:00 +10°C° 0 mm 0 mps 693 mmHg 89%
    02:00 +10°C° 0 mm 0 mps 692 mmHg 89%
    03:00 +10°C° 0 mm 0 mps 692 mmHg 88%
    04:00 +11°C° 0 mm 0 mps 692 mmHg 86%
    05:00 +12°C° 0 mm 0 mps 693 mmHg 84%
    06:00 +13°C° 0 mm 0 mps 693 mmHg 82%
    07:00 +15°C° 0 mm 0 mps 694 mmHg 72%
    08:00 +18°C° 0 mm 0 mps 694 mmHg 63%
    09:00 +21°C° 0 mm 0 mps 694 mmHg 54%
    10:00 +24°C° 0 mm 1 mps 694 mmHg 48%
    11:00 +26°C° 0 mm 1 mps 694 mmHg 43%
    12:00 +27°C° 0 mm 1 mps 694 mmHg 37%
    13:00 +27°C° 0 mm 1 mps 694 mmHg 40%
    14:00 +26°C° 0 mm 2 mps 693 mmHg 42%
    15:00 +26°C° 0 mm 2 mps 693 mmHg 45%
    16:00 +24°C° 0.1 mm 2 mps 692 mmHg 54%
    17:00 +22°C° 0.1 mm 1 mps 692 mmHg 64%
    18:00 +21°C° 0.1 mm 1 mps 692 mmHg 73%
    19:00 +20°C° 0.1 mm 1 mps 692 mmHg 75%
    20:00 +19°C° 0.1 mm 1 mps 692 mmHg 77%
    21:00 +16°C° 0.1 mm 0 mps 692 mmHg 79%
    22:00 +16°C° 0 mm 1 mps 692 mmHg 81%
    23:00 +15°C° 0 mm 1 mps 691 mmHg 82%

    19 June, Wednesday

    Time Temperature Precipitation Wind Pressure Humidity
    00:00 +15°C° 0 mm 1 mps 691 mmHg 84%
    01:00 +14°C° 0 mm 1 mps 691 mmHg 85%
    02:00 +14°C° 0 mm 1 mps 690 mmHg 86%
    03:00 +13°C° 0 mm 1 mps 690 mmHg 87%
    04:00 +14°C° 0 mm 1 mps 690 mmHg 85%
    05:00 +15°C° 0 mm 1 mps 690 mmHg 83%
    06:00 +16°C° 0 mm 1 mps 690 mmHg 81%
    07:00 +18°C° 0 mm 1 mps 690 mmHg 74%
    08:00 +20°C° 0 mm 1 mps 690 mmHg 67%
    09:00 +22°C° 0 mm 1 mps 690 mmHg 60%
    10:00 +23°C° 0.1 mm 1 mps 690 mmHg 59%
    11:00 +24°C° 0.1 mm 2 mps 690 mmHg 58%
    12:00 +24°C° 0.1 mm 3 mps 690 mmHg 57%
    13:00 +24°C° 0.5 mm 2 mps 690 mmHg 60%
    14:00 +24°C° 0.5 mm 2 mps 690 mmHg 62%
    15:00 +24°C° 0.5 mm 2 mps 689 mmHg 65%
    16:00 +23°C° 0.5 mm 1 mps 689 mmHg 71%
    17:00 +22°C° 0.5 mm 1 mps 689 mmHg 77%
    18:00 +21°C° 0.5 mm 1 mps 689 mmHg 82%
    19:00 +19°C° 0.1 mm 1 mps 689 mmHg 84%
    20:00 +18°C° 0.1 mm 1 mps 689 mmHg 86%
    21:00 +16°C° 0.1 mm 1 mps 689 mmHg 89%
    22:00 +16°C° 0 mm 1 mps 689 mmHg 89%
    23:00 +14°C° 0 mm 0 mps 688 mmHg 89%

    20 June, Thursday

    Time Temperature Precipitation Wind Pressure Humidity
    00:00 +14°C° 0 mm 0 mps 688 mmHg 90%
    01:00 +14°C° 0 mm 0 mps 688 mmHg 90%
    02:00 +13°C° 0 mm 0 mps 688 mmHg 90%
    03:00 +13°C° 0 mm 0 mps 688 mmHg 91%
    04:00 +14°C° 0 mm 0 mps 688 mmHg 90%
    05:00 +14°C° 0 mm 0 mps 688 mmHg 89%
    06:00 +15°C° 0 mm 0 mps 689 mmHg 88%
    07:00 +17°C° 0 mm 0 mps 689 mmHg 78%
    08:00 +20°C° 0 mm 0 mps 690 mmHg 69%
    09:00 +25°C° 0 mm 1 mps 690 mmHg 59%
    10:00 +26°C° 0 mm 1 mps 690 mmHg 54%
    11:00 +27°C° 0 mm 1 mps 691 mmHg 48%
    12:00 +28°C° 0 mm 1 mps 691 mmHg 43%
    13:00 +28°C° 0 mm 2 mps 690 mmHg 44%
    14:00 +28°C° 0 mm 2 mps 690 mmHg 45%
    15:00 +28°C° 0 mm 2 mps 690 mmHg 46%
    16:00 +26°C° 0.2 mm 2 mps 690 mmHg 57%
    17:00 +24°C° 0.2 mm 2 mps 690 mmHg 69%
    18:00 +21°C° 0.2 mm 2 mps 690 mmHg 80%
    19:00 +21°C° 0.1 mm 1 mps 690 mmHg 83%
    20:00 +20°C° 0.1 mm 1 mps 690 mmHg 86%
    21:00 +19°C° 0.1 mm 1 mps 690 mmHg 89%
    22:00 +18°C° 0 mm 1 mps 690 mmHg 89%
    23:00 +18°C° 0 mm 1 mps 690 mmHg 89%

    21 June, Friday

    Time Temperature Precipitation Wind Pressure Humidity
    00:00 +16°C° 0 mm 1 mps 690 mmHg 90%
    01:00 +16°C° 0 mm 1 mps 690 mmHg 89%
    02:00 +15°C° 0 mm 1 mps 689 mmHg 88%
    03:00 +15°C° 0 mm 1 mps 689 mmHg 88%
    04:00 +15°C° 0 mm 1 mps 689 mmHg 86%
    05:00 +16°C° 0 mm 1 mps 689 mmHg 85%
    06:00 +15°C° 0 mm 0 mps 689 mmHg 84%
    07:00 +20°C° 0 mm 1 mps 690 mmHg 75%
    08:00 +22°C° 0 mm 1 mps 690 mmHg 66%
    09:00 +25°C° 0 mm 1 mps 691 mmHg 57%
    10:00 +26°C° 0 mm 1 mps 691 mmHg 52%
    11:00 +26°C° 0 mm 1 mps 691 mmHg 48%
    12:00 +27°C° 0 mm 1 mps 691 mmHg 44%
    13:00 +27°C° 0 mm 1 mps 691 mmHg 45%
    14:00 +28°C° 0 mm 1 mps 690 mmHg 46%
    15:00 +28°C° 0 mm 2 mps 690 mmHg 47%
    16:00 +26°C° 0.4 mm 2 mps 690 mmHg 56%
    17:00 +24°C° 0.4 mm 2 mps 689 mmHg 65%
    18:00 +21°C° 0.4 mm 2 mps 689 mmHg 74%
    19:00 +20°C° 0.4 mm 2 mps 689 mmHg 77%
    20:00 +20°C° 0.4 mm 1 mps 689 mmHg 80%
    21:00 +19°C° 0.4 mm 1 mps 689 mmHg 82%
    22:00 +19°C° 0.3 mm 1 mps 688 mmHg 84%
    23:00 +19°C° 0.3 mm 1 mps 688 mmHg 86%
    Show more